Wind_Speed
52 55 48 48 46 48 46 45 47 48 49 47 44 42 38 33 30 26 27 30 27 20 20 22 21 22 22 21 21 22 22 23 23 23 24 24 24 25 26 23 23 25 27
56 56 51 43 45 52 48 48 46 48 50 49 46 43 43 40 37 33 31 32 32 30 24 25 25 24 23 22 22 21 22 24 24 26 27 24 23 27 26 26 28 32 28
62 63 61 56 52 52 57 51 49 49 49 50 49 48 48 47 44 36 33 32 33 35 32 30 30 29 26 24 23 24 25 26 26 27 27 26 25 26 27 28 31 34 32
57 59 65 65 63 58 60 61 53 53 50 52 53 51 49 49 46 43 42 39 36 33 36 36 35 33 31 28 28 29 30 30 31 32 31 30 25 26 27 30 32 34 33
59 59 59 60 63 67 64 63 55 53 52 51 51 52 51 52 51 50 48 46 41 39 38 39 38 37 35 33 33 33 33 34 35 35 36 32 29 32 34 31 34 36 31
58 59 57 60 63 61 64 60 58 57 58 52 50 48 49 53 53 54 50 49 48 42 43 39 41 40 37 35 37 37 37 36 38 38 39 37 36 32 36 34 36 36 33
61 64 61 59 55 60 62 60 59 64 67 71 74 65 51 50 52 56 53 52 50 48 46 42 44 44 42 40 40 40 40 40 42 41 39 39 36 37 36 39 38 39 37
60 63 57 67 59 55 58 59 61 63 59 57 59 60 57 68 62 54 53 47 50 48 52 51 49 49 46 44 43 43 43 44 45 44 41 38 37 39 42 41 43 43 42
58 53 49 59 62 60 61 62 61 61 61 60 59 59 56 48 47 51 55 52 56 47 43 54 52 51 49 48 48 44 44 46 48 45 41 42 44 41 43 43 46 47 48
56 54 53 51 54 59 63 64 62 63 63 62 62 60 60 60 49 47 51 53 49 52 50 53 52 54 53 51 52 47 45 47 49 45 44 44 46 45 46 46 48 49 50
56 55 62 61 57 56 61 66 67 65 66 67 65 63 62 60 58 54 52 54 54 53 53 53 55 56 53 53 53 51 51 51 49 50 55 53 46 49 54 49 51 51 52
65 59 58 63 59 62 59 63 67 68 69 68 68 66 63 63 63 62 59 58 57 57 55 54 58 62 59 58 59 58 65 68 64 59 56 47 47 50 48 51 53 53 53
73 69 62 62 60 60 60 64 65 68 76 75 73 71 66 67 68 69 66 61 62 61 59 61 65 64 61 62 59 57 54 56 56 56 54 47 45 48 46 53 53 56 51
67 65 65 67 70 68 72 74 69 67 66 65 65 67 68 62 63 66 67 66 65 69 66 62 59 63 62 60 61 59 56 57 56 51 49 48 47 53 54 57 56 55 54
57 66 71 67 67 65 71 77 73 68 66 68 69 67 64 65 70 65 64 64 61 62 61 69 66 66 59 64 61 63 62 59 64 49 50 51 53 57 57 58 58 58 56
52 53 69 70 67 68 71 74 72 69 68 68 66 68 70 70 67 66 64 63 62 61 63 65 69 68 69 69 67 65 66 66 64 54 61 55 55 59 59 59 59 58 56
44 43 47 48 52 59 70 67 69 71 70 69 68 68 72 69 68 63 62 61 59 58 57 58 58 58 61 64 67 67 67 67 66 64 63 62 63 65 65 63 63 63 62
53 49 47 53 54 54 55 59 63 70 72 71 71 73 73 70 72 70 69 68 68 69 70 69 68 64 62 62 61 61 61 61 61 62 63 64 64 64 63 61 59 60 61
61 63 60 60 59 58 64 68 67 70 68 70 69 68 67 70 71 69 72 75 75 76 76 75 71 70 70 69 67 66 63 61 60 59 59 57 58 56 58 60 58 59 59
55 61 66 69 70 71 72 71 69 68 67 76 78 78 81 81 83 81 81 81 78 72 73 78 78 76 74 72 69 69 69 67 67 64 62 60 59 58 59 57 56 55 58
39 41 44 43 54 67 77 77 79 78 76 76 77 77 76 75 72 76 80 81 76 73 73 71 72 75 77 78 78 77 74 71 70 68 65 62 60 59 57 57 58 58 61
33 34 35 35 37 44 50 64 76 80 85 89 81 77 76 76 73 71 70 74 78 77 74 70 67 64 65 69 73 79 78 76 75 71 67 64 61 58 57 58 64 66 63
32 32 32 34 36 40 41 46 50 57 66 73 83 85 92 94 96 92 88 82 79 77 79 74 76 73 69 68 71 72 73 73 71 73 70 66 61 57 57 57 56 56 55
39 40 39 38 37 37 38 39 40 42 44 51 61 76 85 84 82 97 100 97 92 87 84 85 79 75 74 74 74 74 71 67 63 64 66 65 63 58 56 57 57 53 53
47 45 45 45 43 43 44 45 48 50 51 52 55 56 56 55 55 58 65 74 82 90 93 99 96 89 81 82 82 80 73 69 63 60 56 54 54 52 51 51 51 50 46
50 50 50 50 49 48 49 52 56 56 57 60 60 59 59 57 57 55 55 57 59 60 58 70 76 78 82 82 86 87 81 73 66 64 57 50 50 47 45 48 48 48 37
Wind_Direction
242 253 248 248 245 238 228 231 236 239 245 250 254 259 264 261 259 259 268 272 272 263 258 259 256 255 256 256 259 263 267 271 275 279 282 286 291 292 294 295 295 302 305
237 246 253 251 246 250 244 233 234 240 244 248 251 253 257 260 259 257 258 267 271 272 264 263 258 250 248 249 254 260 267 272 277 281 287 289 294 294 296 297 301 303 306
237 241 243 243 244 245 254 246 239 234 239 243 243 246 250 253 255 256 255 259 267 270 273 269 267 266 264 263 263 262 265 268 276 281 289 291 300 298 296 298 304 309 306
233 233 235 239 241 241 239 250 246 242 238 238 244 246 249 254 256 256 256 255 254 256 266 267 271 272 272 270 271 275 279 278 285 286 288 292 296 302 298 300 305 307 300
228 234 234 237 239 239 242 239 248 246 243 244 242 247 251 252 254 253 253 253 248 246 253 264 267 269 273 276 278 278 281 285 289 293 295 295 297 299 302 295 299 302 296
232 236 235 235 236 238 240 241 233 241 243 239 240 241 246 252 253 253 253 255 258 252 245 255 264 263 267 271 271 272 277 282 283 286 288 289 293 285 294 292 293 297 291
234 236 241 235 237 242 239 244 244 244 247 246 245 239 240 245 250 253 254 250 254 253 250 248 253 256 258 262 267 268 270 274 276 279 282 282 287 287 290 290 286 292 292
228 228 232 237 233 233 239 239 243 248 246 248 251 251 248 243 244 250 256 249 260 253 259 250 246 250 254 260 263 265 268 271 272 275 276 278 283 287 287 283 283 287 287
222 225 225 235 236 228 232 235 239 244 250 250 251 254 257 242 247 248 252 260 257 257 263 246 254 255 259 261 264 265 267 269 270 271 273 275 282 281 282 280 280 285 287
220 219 217 221 222 228 227 234 236 240 244 247 249 251 254 259 260 249 249 259 254 251 247 248 252 258 260 259 262 263 264 267 271 269 271 277 281 277 280 278 277 281 288
221 234 229 220 217 221 226 225 236 238 241 245 248 250 253 254 254 251 248 249 252 255 260 252 252 251 254 256 258 260 262 263 266 266 269 277 275 279 279 276 274 278 286
229 231 228 232 221 219 220 225 228 236 241 244 248 250 249 250 251 252 248 247 247 251 254 257 258 259 260 257 259 260 257 258 258 265 269 269 274 281 270 275 273 276 285
226 227 226 226 220 218 227 224 225 227 231 237 243 247 250 251 254 257 257 254 254 252 257 257 257 257 258 259 258 257 258 265 263 267 269 260 270 277 274 273 274 277 281
239 243 246 250 252 253 254 253 242 243 245 243 244 245 248 247 260 260 258 255 259 260 263 254 255 258 258 257 260 258 264 273 267 266 270 268 270 274 273 275 275 279 279
243 241 244 243 242 242 245 248 251 249 251 254 254 250 250 254 258 255 256 256 256 256 258 256 259 258 255 261 259 259 267 266 269 268 268 265 271 273 272 274 276 278 281
221 221 233 234 238 242 244 242 242 242 242 241 244 247 248 249 250 252 253 252 250 250 251 251 252 255 257 259 263 264 264 269 269 267 268 271 270 271 273 274 275 277 279
229 232 235 235 236 236 236 235 236 239 242 244 247 249 248 248 245 246 246 247 249 251 249 249 249 251 252 255 259 261 263 264 267 266 263 263 267 269 270 272 273 274 277
256 258 247 249 251 247 244 238 238 240 242 244 247 249 247 245 244 244 246 251 252 253 252 253 255 253 253 255 257 257 259 262 264 263 264 264 264 264 267 268 272 276 277
268 262 254 251 250 251 255 256 254 252 245 245 252 253 251 246 245 244 247 252 254 253 254 254 255 257 257 256 256 258 259 258 259 260 261 262 262 262 263 266 269 272 277
275 273 270 263 258 256 257 256 256 254 250 250 252 250 252 252 251 253 254 257 256 256 254 253 254 254 256 257 258 258 258 258 259 260 261 261 263 264 265 268 269 273 276
277 278 278 277 274 268 260 259 260 260 258 257 255 252 250 251 256 257 258 257 256 258 259 256 254 254 255 256 256 257 257 258 258 259 259 260 262 262 266 267 270 271 277
264 270 272 271 272 273 273 271 262 261 258 254 253 254 254 253 251 252 255 255 256 257 257 254 255 256 257 258 258 257 257 259 259 259 259 258 258 259 260 264 270 273 275
264 269 271 269 268 269 270 271 272 271 271 270 267 267 267 262 264 260 258 253 253 251 250 250 252 251 256 259 262 261 259 259 259 260 259 260 260 260 263 265 267 271 277
269 270 271 271 269 269 269 272 272 273 274 272 271 269 268 269 269 269 266 258 252 252 252 253 253 250 249 252 256 257 257 254 253 256 259 261 263 262 262 266 266 267 270
265 267 268 268 267 270 270 271 272 274 274 275 271 265 262 259 259 260 262 263 260 259 255 251 252 252 251 248 250 252 248 247 243 243 246 250 255 257 257 257 259 260 263
268 267 264 265 265 267 271 271 274 274 275 278 276 270 265 261 260 259 257 257 259 259 252 250 251 249 250 248 245 247 250 242 239 239 239 240 247 249 253 252 254 250 259
Height
5786 5787 5800 5804 5807 5814 5822 5825 5828 5831 5832 5837 5841 5844 5849 5852 5855 5857 5856 5855 5857 5860 5860 5860 5862 5863 5863 5863 5863 5864 5864 5863 5864 5864 5863 5862 5861 5858 5857 5855 5853 5850 5848
5780 5783 5788 5796 5798 5797 5807 5816 5822 5824 5825 5828 5834 5836 5840 5843 5846 5849 5851 5850 5850 5852 5854 5854 5855 5857 5858 5859 5859 5859 5859 5859 5859 5857 5856 5856 5855 5852 5850 5848 5845 5842 5841
5769 5775 5778 5785 5789 5790 5788 5800 5810 5816 5818 5820 5823 5825 5829 5831 5835 5842 5845 5847 5846 5845 5846 5847 5847 5848 5850 5851 5851 5852 5852 5852 5851 5850 5850 5849 5848 5845 5843 5840 5838 5835 5835
5757 5764 5766 5769 5774 5779 5782 5784 5794 5802 5808 5810 5811 5814 5821 5823 5829 5832 5835 5838 5840 5840 5839 5839 5840 5841 5842 5844 5843 5843 5842 5842 5842 5841 5842 5842 5842 5839 5838 5834 5832 5830 5827
5744 5749 5754 5755 5756 5761 5767 5776 5780 5789 5795 5800 5804 5806 5808 5813 5816 5819 5823 5826 5831 5833 5833 5833 5832 5833 5834 5835 5835 5835 5834 5833 5832 5832 5830 5831 5833 5832 5830 5828 5825 5823 5820
5729 5733 5736 5738 5743 5747 5755 5765 5769 5774 5780 5786 5792 5796 5799 5800 5802 5806 5812 5816 5819 5823 5825 5827 5827 5826 5827 5827 5827 5826 5826 5825 5825 5825 5824 5824 5824 5824 5823 5821 5817 5815 5813
5713 5717 5718 5726 5731 5735 5746 5753 5758 5762 5767 5772 5773 5780 5787 5787 5791 5794 5800 5803 5808 5810 5814 5817 5818 5818 5818 5817 5817 5817 5817 5817 5816 5816 5817 5815 5816 5815 5815 5812 5809 5805 5804
5697 5702 5702 5710 5717 5724 5732 5740 5744 5748 5754 5760 5763 5767 5773 5774 5779 5784 5788 5791 5796 5799 5800 5802 5804 5806 5808 5808 5808 5808 5807 5807 5807 5806 5806 5806 5807 5805 5805 5802 5798 5794 5793
5683 5687 5691 5698 5705 5709 5718 5725 5731 5735 5741 5747 5752 5753 5755 5754 5757 5772 5777 5779 5782 5787 5787 5789 5790 5793 5796 5798 5797 5797 5797 5795 5795 5797 5796 5796 5796 5796 5795 5792 5788 5782 5781
5669 5676 5683 5686 5692 5698 5705 5711 5717 5721 5726 5732 5736 5741 5743 5746 5754 5761 5765 5768 5770 5771 5773 5774 5774 5779 5782 5784 5786 5787 5786 5785 5785 5786 5786 5786 5785 5785 5784 5780 5777 5774 5770
5658 5664 5670 5676 5680 5686 5692 5700 5703 5708 5712 5716 5720 5726 5731 5735 5740 5746 5751 5753 5755 5757 5760 5764 5766 5767 5770 5773 5775 5776 5775 5772 5771 5771 5773 5775 5775 5774 5772 5769 5766 5764 5761
5647 5651 5659 5666 5670 5674 5680 5684 5689 5694 5698 5702 5705 5710 5714 5717 5722 5726 5732 5738 5740 5742 5745 5748 5751 5751 5755 5758 5760 5760 5758 5758 5759 5756 5755 5763 5764 5761 5760 5757 5756 5754 5751
5633 5639 5644 5650 5656 5663 5669 5674 5677 5681 5685 5689 5693 5696 5700 5703 5706 5709 5712 5718 5723 5728 5731 5732 5732 5736 5737 5738 5741 5741 5743 5742 5743 5741 5743 5746 5750 5750 5749 5745 5744 5741 5738
5621 5627 5636 5640 5644 5650 5656 5660 5665 5668 5673 5677 5679 5683 5685 5688 5691 5695 5698 5700 5704 5709 5713 5716 5720 5721 5720 5719 5721 5724 5726 5728 5728 5731 5734 5735 5739 5738 5737 5733 5732 5729 5727
5615 5619 5624 5629 5634 5639 5642 5645 5649 5653 5656 5659 5663 5667 5668 5671 5675 5677 5681 5686 5689 5692 5695 5699 5703 5709 5708 5706 5706 5709 5713 5714 5715 5718 5720 5723 5725 5726 5724 5722 5720 5718 5716
5600 5605 5607 5610 5615 5621 5627 5631 5636 5639 5644 5647 5648 5650 5653 5655 5658 5661 5663 5666 5670 5673 5678 5681 5686 5689 5693 5694 5694 5695 5697 5699 5701 5703 5706 5709 5711 5712 5710 5710 5708 5706 5704
5588 5589 5592 5596 5597 5601 5607 5609 5614 5618 5623 5627 5630 5633 5636 5640 5643 5646 5648 5650 5652 5655 5657 5661 5666 5671 5675 5676 5678 5680 5681 5684 5685 5688 5692 5694 5696 5696 5696 5695 5694 5692 5691
5572 5573 5573 5575 5577 5582 5587 5590 5596 5601 5605 5608 5610 5612 5616 5620 5625 5629 5632 5635 5637 5638 5640 5643 5646 5651 5655 5658 5661 5663 5665 5668 5669 5672 5675 5677 5679 5681 5681 5679 5679 5678 5676
5556 5557 5562 5566 5568 5570 5571 5574 5581 5585 5590 5591 5591 5595 5598 5603 5607 5611 5613 5616 5618 5621 5623 5626 5629 5633 5636 5639 5643 5645 5649 5653 5655 5657 5659 5662 5663 5666 5666 5665 5666 5665 5663
5542 5544 5547 5552 5554 5555 5553 5557 5562 5566 5570 5567 5573 5577 5581 5586 5589 5592 5593 5596 5599 5600 5603 5606 5610 5614 5618 5620 5623 5627 5632 5636 5639 5642 5644 5647 5649 5650 5651 5652 5652 5651 5650
5532 5532 5532 5532 5533 5535 5538 5542 5543 5544 5543 5548 5555 5560 5563 5563 5566 5568 5572 5575 5578 5582 5585 5587 5589 5593 5597 5600 5605 5609 5613 5617 5620 5623 5627 5630 5633 5634 5637 5637 5637 5637 5636
5523 5520 5520 5520 5519 5518 5518 5522 5528 5528 5528 5531 5535 5539 5540 5542 5546 5550 5553 5555 5559 5562 5566 5569 5572 5573 5576 5580 5584 5588 5594 5597 5600 5605 5609 5612 5616 5619 5621 5622 5623 5623 5621
5514 5513 5511 5511 5509 5507 5505 5506 5507 5506 5509 5512 5514 5513 5514 5517 5517 5523 5533 5534 5537 5540 5545 5547 5552 5555 5556 5562 5566 5570 5574 5579 5581 5585 5589 5594 5598 5603 5604 5606 5608 5608 5608
5502 5501 5501 5501 5500 5498 5496 5494 5492 5490 5489 5490 5491 5491 5491 5490 5489 5492 5498 5505 5509 5514 5520 5525 5530 5535 5540 5543 5546 5551 5557 5562 5564 5568 5572 5576 5582 5586 5589 5592 5593 5594 5594
5490 5489 5489 5489 5487 5485 5484 5482 5480 5478 5478 5477 5476 5474 5472 5471 5471 5471 5472 5475 5479 5483 5489 5499 5504 5511 5518 5520 5526 5533 5540 5544 5548 5551 5556 5562 5567 5571 5575 5578 5580 5582 5581
5476 5475 5475 5475 5474 5473 5471 5468 5464 5461 5460 5458 5455 5453 5452 5452 5451 5452 5454 5456 5460 5462 5462 5467 5475 5480 5487 5493 5500 5510 5519 5526 5530 5534 5541 5548 5553 5557 5563 5567 5567 5568 5564